PGT8GC LIME-LTFJ

Flight info

Callsign PGT8GC
Flight time 2h 16m
Altitude 37000
Route LEGLO L615 NEVNI DCT LABIN DCT ULPIN DCT ELTIB DCT NISVA N739 WAK T343 BLO DCT BUFRA DCT ADORU UM19 IBODU
Aircraft A320/M-SDE3FGHIRWY/LB1

Departure

Time 2026-05-01 10:51
Airport Il Caravaggio International Airport (LIME)

Arrival

Time 2026-05-01 13:07
Airport Istanbul Sabiha Gökçen International Airport (LTFJ)
Time Latitude Longitude Altitude Speed Heading
2026-05-01 10:26 45.66635 9.69990 788 ft 0 kts 195°
2026-05-01 10:43 45.66645 9.69994 787 ft 4 kts 195°
2026-05-01 10:43 45.66672 9.70003 787 ft 4 kts 191°
2026-05-01 10:43 45.66698 9.70009 787 ft 4 kts 185°
2026-05-01 10:44 45.66725 9.70009 787 ft 4 kts 165°
2026-05-01 10:44 45.66743 9.69994 787 ft 2 kts 107°
2026-05-01 10:44 45.66743 9.69992 787 ft 0 kts 105°
2026-05-01 10:46 45.66738 9.70022 787 ft 8 kts 105°
2026-05-01 10:46 45.66719 9.70126 787 ft 12 kts 104°
2026-05-01 10:46 45.66696 9.70252 787 ft 14 kts 104°
2026-05-01 10:47 45.66670 9.70394 787 ft 15 kts 105°
2026-05-01 10:47 45.66642 9.70546 787 ft 16 kts 105°
2026-05-01 10:47 45.66612 9.70707 787 ft 17 kts 105°
2026-05-01 10:47 45.66580 9.70877 787 ft 18 kts 105°
2026-05-01 10:48 45.66547 9.71055 787 ft 19 kts 105°
2026-05-01 10:48 45.66499 9.71234 787 ft 20 kts 107°
2026-05-01 10:48 45.66462 9.71425 787 ft 20 kts 105°
2026-05-01 10:48 45.66440 9.71623 787 ft 21 kts 82°
2026-05-01 10:49 45.66473 9.71827 787 ft 21 kts 88°
2026-05-01 10:49 45.66441 9.72034 787 ft 22 kts 104°
2026-05-01 10:49 45.66408 9.72214 787 ft 13 kts 104°
2026-05-01 10:49 45.66385 9.72342 787 ft 14 kts 104°
2026-05-01 10:50 45.66377 9.72482 787 ft 15 kts 81°
2026-05-01 10:50 45.66422 9.72578 787 ft 11 kts 351°
2026-05-01 10:50 45.66450 9.72493 787 ft 10 kts 284°
2026-05-01 10:50 45.66502 9.72208 787 ft 65 kts 284°
2026-05-01 10:51 45.66676 9.71269 790 ft 127 kts 285°
2026-05-01 10:51 45.66947 9.69820 856 ft 167 kts 284°
2026-05-01 10:51 45.67185 9.68211 1487 ft 167 kts 269°
2026-05-01 10:51 45.66857 9.66649 2141 ft 166 kts 232°
2026-05-01 10:52 45.66058 9.65451 2781 ft 169 kts 222°
2026-05-01 10:52 45.65197 9.64194 3234 ft 184 kts 223°
2026-05-01 10:52 45.64301 9.62868 3834 ft 186 kts 224°
2026-05-01 10:52 45.63392 9.61513 4391 ft 191 kts 225°
2026-05-01 10:53 45.62465 9.60129 4968 ft 195 kts 226°
2026-05-01 10:53 45.61515 9.58718 5329 ft 201 kts 225°
2026-05-01 10:53 45.60493 9.57233 5647 ft 217 kts 225°
2026-05-01 10:53 45.59407 9.55687 6143 ft 223 kts 222°
2026-05-01 10:54 45.58070 9.54580 6652 ft 226 kts 192°
2026-05-01 10:54 45.56516 9.54531 7274 ft 224 kts 162°
2026-05-01 10:54 45.55156 9.55528 7957 ft 220 kts 134°
2026-05-01 10:54 45.54290 9.57291 8614 ft 219 kts 107°
2026-05-01 10:55 45.54100 9.59418 9260 ft 218 kts 81°
2026-05-01 10:55 45.54617 9.61435 9919 ft 219 kts 55°
2026-05-01 10:55 45.55629 9.63034 10541 ft 221 kts 46°
2026-05-01 10:55 45.56702 9.64610 11188 ft 223 kts 46°
2026-05-01 10:56 45.57787 9.66210 11946 ft 225 kts 46°
2026-05-01 10:56 45.58880 9.67823 12606 ft 226 kts 46°
2026-05-01 10:56 45.59977 9.69444 13257 ft 228 kts 46°
2026-05-01 10:56 45.61080 9.71074 13916 ft 229 kts 46°
2026-05-01 10:57 45.62188 9.72712 14536 ft 230 kts 46°
2026-05-01 10:57 45.63302 9.74364 15098 ft 231 kts 46°
2026-05-01 10:57 45.64353 9.76109 15657 ft 233 kts 58°
2026-05-01 10:57 45.64962 9.78268 16184 ft 241 kts 77°
2026-05-01 10:58 45.65062 9.80769 16335 ft 264 kts 87°
2026-05-01 10:58 45.65048 9.83502 16484 ft 286 kts 87°
2026-05-01 10:58 45.65032 9.86447 16614 ft 306 kts 87°
2026-05-01 10:58 45.65018 9.89591 16740 ft 326 kts 87°
2026-05-01 10:59 45.65005 9.92919 16868 ft 344 kts 88°
2026-05-01 10:59 45.64993 9.96398 17183 ft 355 kts 88°
2026-05-01 10:59 45.64978 9.99944 17721 ft 359 kts 88°
2026-05-01 10:59 45.64962 10.03529 18297 ft 362 kts 88°
2026-05-01 11:00 45.64945 10.07144 18827 ft 365 kts 88°
2026-05-01 11:00 45.64927 10.10782 19299 ft 368 kts 87°
2026-05-01 11:00 45.64913 10.14458 19762 ft 371 kts 87°
2026-05-01 11:00 45.64904 10.18158 20222 ft 374 kts 87°
2026-05-01 11:01 45.64897 10.21897 20720 ft 377 kts 87°
2026-05-01 11:01 45.64891 10.25655 21239 ft 379 kts 86°
2026-05-01 11:01 45.64884 10.29432 21716 ft 382 kts 87°
2026-05-01 11:01 45.64872 10.33243 22126 ft 385 kts 86°
2026-05-01 11:02 45.64858 10.37085 22566 ft 388 kts 86°
2026-05-01 11:02 45.64770 10.40963 23003 ft 394 kts 92°
2026-05-01 11:02 45.64234 10.44833 23409 ft 402 kts 103°
2026-05-01 11:02 45.63343 10.48641 23817 ft 406 kts 104°
2026-05-01 11:03 45.62445 10.52426 24173 ft 409 kts 104°
2026-05-01 11:03 45.61536 10.56284 24533 ft 411 kts 104°
2026-05-01 11:03 45.60626 10.60165 24912 ft 413 kts 104°
2026-05-01 11:03 45.59715 10.64055 25290 ft 414 kts 103°
2026-05-01 11:04 45.58797 10.67964 25650 ft 416 kts 104°
2026-05-01 11:04 45.57873 10.71885 26003 ft 418 kts 104°
2026-05-01 11:04 45.56939 10.75826 26349 ft 420 kts 104°
2026-05-01 11:04 45.55998 10.79786 26683 ft 422 kts 104°
2026-05-01 11:05 45.55052 10.83762 27005 ft 424 kts 104°
2026-05-01 11:05 45.54097 10.87762 27324 ft 427 kts 104°
2026-05-01 11:05 45.53134 10.91775 27649 ft 429 kts 104°
2026-05-01 11:05 45.52166 10.95804 27965 ft 431 kts 104°
2026-05-01 11:06 45.51194 10.99855 28363 ft 432 kts 103°
2026-05-01 11:06 45.50220 11.03910 28691 ft 433 kts 103°
2026-05-01 11:06 45.49244 11.07979 28990 ft 435 kts 103°
2026-05-01 11:07 45.47265 11.16170 29531 ft 439 kts 103°
2026-05-01 11:07 45.46267 11.20292 29802 ft 441 kts 103°
2026-05-01 11:07 45.45264 11.24435 30066 ft 443 kts 103°
2026-05-01 11:07 45.44256 11.28585 30330 ft 445 kts 103°
2026-05-01 11:08 45.43239 11.32759 30566 ft 447 kts 103°
2026-05-01 11:08 45.42215 11.36945 30794 ft 448 kts 103°
2026-05-01 11:08 45.40169 11.45307 31450 ft 446 kts 103°
2026-05-01 11:09 45.39150 11.49463 31797 ft 444 kts 103°
2026-05-01 11:09 45.38133 11.53611 32127 ft 443 kts 103°
2026-05-01 11:09 45.37118 11.57742 32458 ft 442 kts 103°
2026-05-01 11:10 45.35086 11.65966 33154 ft 439 kts 103°
2026-05-01 11:10 45.34075 11.70049 33570 ft 437 kts 103°
2026-05-01 11:10 45.33067 11.74105 33966 ft 434 kts 103°
2026-05-01 11:10 45.32062 11.78139 34333 ft 433 kts 102°
2026-05-01 11:11 45.31060 11.82167 34623 ft 432 kts 103°
2026-05-01 11:11 45.30063 11.86186 34849 ft 432 kts 103°
2026-05-01 11:11 45.29064 11.90215 35051 ft 433 kts 103°
2026-05-01 11:11 45.28061 11.94252 35248 ft 434 kts 103°
2026-05-01 11:12 45.27048 11.98290 35430 ft 435 kts 103°
2026-05-01 11:12 45.26029 12.02333 35618 ft 436 kts 103°
2026-05-01 11:12 45.25007 12.06386 35842 ft 436 kts 103°
2026-05-01 11:12 45.23987 12.10437 36039 ft 436 kts 103°
2026-05-01 11:13 45.22967 12.14494 36217 ft 437 kts 103°
2026-05-01 11:13 45.21945 12.18553 36390 ft 437 kts 103°
2026-05-01 11:13 45.20919 12.22621 36560 ft 438 kts 103°
2026-05-01 11:13 45.19888 12.26687 36730 ft 439 kts 104°
2026-05-01 11:14 45.18865 12.30706 36889 ft 439 kts 104°
2026-05-01 11:14 45.17824 12.34780 37053 ft 440 kts 104°
2026-05-01 11:14 45.16782 12.38858 37209 ft 441 kts 104°
2026-05-01 11:14 45.15739 12.42942 37380 ft 441 kts 104°
2026-05-01 11:15 45.13656 12.51095 37401 ft 440 kts 104°
2026-05-01 11:15 45.11565 12.59240 37399 ft 440 kts 104°
2026-05-01 11:16 45.09701 12.66472 37399 ft 440 kts 104°
2026-05-01 11:16 45.07968 12.73178 37396 ft 440 kts 104°
2026-05-01 11:17 45.05937 12.81016 37426 ft 440 kts 104°
2026-05-01 11:17 45.04018 12.88398 37418 ft 440 kts 104°
2026-05-01 11:18 45.03064 12.92063 37408 ft 440 kts 104°
2026-05-01 11:18 45.01212 12.99160 37396 ft 440 kts 104°
2026-05-01 11:19 44.99789 13.04577 37396 ft 441 kts 104°
2026-05-01 11:19 44.98070 13.12100 37422 ft 435 kts 97°
2026-05-01 11:20 44.96633 13.20412 37407 ft 436 kts 98°
2026-05-01 11:20 44.95186 13.28717 37398 ft 436 kts 98°
2026-05-01 11:21 44.93725 13.37022 37393 ft 436 kts 98°
2026-05-01 11:21 44.92261 13.45327 37385 ft 436 kts 98°
2026-05-01 11:22 44.90796 13.53601 37374 ft 433 kts 98°
2026-05-01 11:22 44.89334 13.61843 37373 ft 433 kts 98°
2026-05-01 11:23 44.87876 13.70029 37368 ft 433 kts 98°
2026-05-01 11:23 44.86397 13.78263 37365 ft 433 kts 98°
2026-05-01 11:24 44.84914 13.86495 37384 ft 433 kts 98°
2026-05-01 11:25 44.82929 13.97489 37372 ft 433 kts 98°
2026-05-01 11:25 44.80683 14.09802 37374 ft 433 kts 98°
2026-05-01 11:26 44.78431 14.22051 37383 ft 432 kts 98°
2026-05-01 11:27 44.76926 14.30242 37371 ft 432 kts 98°
2026-05-01 11:27 44.75406 14.38428 37369 ft 432 kts 98°
2026-05-01 11:28 44.73880 14.46607 37365 ft 432 kts 98°
2026-05-01 11:28 44.72352 14.54788 37400 ft 432 kts 98°
2026-05-01 11:29 44.70053 14.67048 37379 ft 432 kts 98°
2026-05-01 11:30 44.67899 14.79317 37369 ft 431 kts 97°
2026-05-01 11:30 44.66488 14.87492 37363 ft 431 kts 97°
2026-05-01 11:31 44.65051 14.95663 37366 ft 431 kts 98°
2026-05-01 11:31 44.63600 15.03821 37362 ft 431 kts 98°
2026-05-01 11:32 44.62144 15.11979 37354 ft 431 kts 98°
2026-05-01 11:32 44.60681 15.20130 37354 ft 431 kts 98°
2026-05-01 11:33 44.59208 15.28276 37368 ft 431 kts 98°
2026-05-01 11:33 44.57730 15.36422 37355 ft 431 kts 98°
2026-05-01 11:34 44.56254 15.44569 37343 ft 431 kts 98°
2026-05-01 11:34 44.54770 15.52711 37337 ft 431 kts 98°
2026-05-01 11:35 44.53276 15.60850 37350 ft 431 kts 98°
2026-05-01 11:35 44.51776 15.68997 37333 ft 432 kts 98°
2026-05-01 11:36 44.50271 15.77156 37322 ft 433 kts 98°
2026-05-01 11:36 44.48758 15.85322 37318 ft 433 kts 98°
2026-05-01 11:37 44.47235 15.93482 37317 ft 433 kts 99°
2026-05-01 11:37 44.45706 16.01647 37323 ft 434 kts 99°
2026-05-01 11:38 44.44167 16.09826 37316 ft 435 kts 99°
2026-05-01 11:38 44.42616 16.18022 37314 ft 436 kts 99°
2026-05-01 11:39 44.41059 16.26220 37307 ft 437 kts 99°
2026-05-01 11:39 44.39504 16.34378 37322 ft 438 kts 100°
2026-05-01 11:40 44.37933 16.42609 37311 ft 439 kts 100°
2026-05-01 11:40 44.36349 16.50862 37310 ft 440 kts 100°
2026-05-01 11:41 44.34752 16.59130 37319 ft 441 kts 100°
2026-05-01 11:41 44.33142 16.67405 37336 ft 442 kts 101°
2026-05-01 11:42 44.31524 16.75694 37325 ft 443 kts 101°
2026-05-01 11:42 44.29904 16.84004 37326 ft 444 kts 100°
2026-05-01 11:43 44.28302 16.92330 37328 ft 444 kts 100°
2026-05-01 11:43 44.26697 17.00663 37370 ft 445 kts 101°
2026-05-01 11:44 44.24261 17.13169 37339 ft 446 kts 101°
2026-05-01 11:44 44.22629 17.21509 37327 ft 446 kts 101°
2026-05-01 11:45 44.20991 17.29849 37329 ft 446 kts 101°
2026-05-01 11:45 44.19351 17.38191 37340 ft 446 kts 101°
2026-05-01 11:46 44.17703 17.46537 37325 ft 447 kts 101°
2026-05-01 11:46 44.16042 17.54887 37315 ft 447 kts 102°
2026-05-01 11:47 44.14370 17.63234 37312 ft 448 kts 102°
2026-05-01 11:47 44.12693 17.71580 37324 ft 448 kts 102°
2026-05-01 11:48 44.11013 17.79942 37310 ft 449 kts 101°
2026-05-01 11:48 44.09326 17.88317 37307 ft 450 kts 102°
2026-05-01 11:49 44.07626 17.96693 37303 ft 450 kts 102°
2026-05-01 11:49 44.05919 18.05074 37323 ft 451 kts 102°
2026-05-01 11:50 44.04200 18.13465 37312 ft 452 kts 102°
2026-05-01 11:50 44.02472 18.21855 37305 ft 452 kts 102°
2026-05-01 11:51 44.00749 18.30196 37305 ft 452 kts 102°
2026-05-01 11:51 43.99013 18.38587 37297 ft 452 kts 103°
2026-05-01 11:52 43.97269 18.46983 37304 ft 453 kts 103°
2026-05-01 11:52 43.95515 18.55370 37306 ft 453 kts 103°
2026-05-01 11:53 43.93749 18.63757 37304 ft 453 kts 103°
2026-05-01 11:53 43.91985 18.72133 37316 ft 452 kts 103°
2026-05-01 11:54 43.90215 18.80516 37296 ft 453 kts 103°
2026-05-01 11:54 43.88431 18.88897 37293 ft 454 kts 103°
2026-05-01 11:55 43.86638 18.97284 37292 ft 454 kts 103°
2026-05-01 11:55 43.84844 19.05675 37291 ft 454 kts 103°
2026-05-01 11:56 43.83035 19.14070 37288 ft 455 kts 104°
2026-05-01 11:56 43.81164 19.22457 37285 ft 456 kts 104°
2026-05-01 11:57 43.79444 19.30033 37290 ft 456 kts 104°
2026-05-01 11:57 43.77736 19.37549 37289 ft 456 kts 104°
2026-05-01 11:58 43.75834 19.45935 37293 ft 457 kts 105°
2026-05-01 11:59 43.72964 19.58524 37287 ft 458 kts 105°
2026-05-01 11:59 43.71041 19.66919 37291 ft 458 kts 105°
2026-05-01 12:00 43.68134 19.79523 37298 ft 459 kts 104°
2026-05-01 12:01 43.65214 19.92137 37295 ft 460 kts 104°
2026-05-01 12:01 43.63260 20.00550 37298 ft 460 kts 104°
2026-05-01 12:02 43.61299 20.08964 37311 ft 461 kts 105°
2026-05-01 12:02 43.59327 20.17390 37300 ft 462 kts 105°
2026-05-01 12:03 43.57358 20.25761 37295 ft 462 kts 105°
2026-05-01 12:03 43.55363 20.34195 37296 ft 463 kts 105°
2026-05-01 12:04 43.53360 20.42628 37308 ft 463 kts 106°
2026-05-01 12:04 43.51354 20.51062 37305 ft 464 kts 106°
2026-05-01 12:05 43.49338 20.59510 37305 ft 464 kts 107°
2026-05-01 12:05 43.46293 20.72188 37297 ft 466 kts 107°
2026-05-01 12:06 43.44252 20.80662 37295 ft 467 kts 106°
2026-05-01 12:06 43.42193 20.89149 37293 ft 468 kts 106°
2026-05-01 12:07 43.40123 20.97649 37295 ft 469 kts 107°
2026-05-01 12:07 43.38053 21.06146 37320 ft 469 kts 107°
2026-05-01 12:08 43.35976 21.14646 37295 ft 469 kts 107°
2026-05-01 12:08 43.33888 21.23146 37289 ft 470 kts 107°
2026-05-01 12:09 43.31799 21.31648 37289 ft 470 kts 107°
2026-05-01 12:09 43.29699 21.40154 37292 ft 471 kts 107°
2026-05-01 12:10 43.26515 21.52917 37288 ft 472 kts 108°
2026-05-01 12:11 43.23334 21.65631 37296 ft 472 kts 107°
2026-05-01 12:11 43.21195 21.74147 37300 ft 472 kts 107°
2026-05-01 12:12 43.19051 21.82661 37311 ft 472 kts 108°
2026-05-01 12:12 43.16897 21.91167 37303 ft 472 kts 108°
2026-05-01 12:13 43.14737 21.99665 37299 ft 472 kts 107°
2026-05-01 12:13 43.12577 22.08149 37298 ft 472 kts 108°
2026-05-01 12:14 43.10778 22.15190 37282 ft 472 kts 108°
2026-05-01 12:14 43.08606 22.23659 37275 ft 471 kts 108°
2026-05-01 12:15 43.06431 22.32121 37272 ft 472 kts 109°
2026-05-01 12:15 43.04244 22.40577 37273 ft 472 kts 109°
2026-05-01 12:16 43.02052 22.49030 37273 ft 472 kts 109°
2026-05-01 12:16 42.99853 22.57485 37271 ft 472 kts 109°
2026-05-01 12:17 42.97645 22.65935 37283 ft 473 kts 109°
2026-05-01 12:17 42.95434 22.74391 37275 ft 473 kts 109°
2026-05-01 12:18 42.93214 22.82850 37283 ft 474 kts 109°
2026-05-01 12:18 42.90977 22.91310 37286 ft 474 kts 109°
2026-05-01 12:19 42.88736 22.99774 37285 ft 475 kts 109°
2026-05-01 12:19 42.86487 23.08242 37293 ft 475 kts 109°
2026-05-01 12:20 42.84225 23.16710 37300 ft 476 kts 110°
2026-05-01 12:20 42.81951 23.25178 37307 ft 476 kts 110°
2026-05-01 12:21 42.79674 23.33644 37315 ft 476 kts 110°
2026-05-01 12:21 42.77402 23.42113 37312 ft 477 kts 110°
2026-05-01 12:22 42.75114 23.50582 37297 ft 477 kts 110°
2026-05-01 12:22 42.72814 23.59043 37293 ft 477 kts 110°
2026-05-01 12:23 42.70515 23.67506 37286 ft 477 kts 110°
2026-05-01 12:23 42.68202 23.75969 37283 ft 478 kts 110°
2026-05-01 12:24 42.66169 23.84561 37286 ft 478 kts 102°
2026-05-01 12:24 42.64677 23.93366 37297 ft 479 kts 103°
2026-05-01 12:25 42.62435 24.06516 37300 ft 479 kts 103°
2026-05-01 12:26 42.60911 24.15322 37307 ft 479 kts 103°
2026-05-01 12:26 42.58623 24.28529 37305 ft 480 kts 103°
2026-05-01 12:27 42.56319 24.41751 37307 ft 481 kts 103°
2026-05-01 12:28 42.53996 24.54982 37315 ft 481 kts 103°
2026-05-01 12:29 42.51635 24.68220 37319 ft 482 kts 105°
2026-05-01 12:29 42.47810 24.80776 37315 ft 481 kts 115°
2026-05-01 12:30 42.43676 24.93182 37316 ft 482 kts 115°
2026-05-01 12:31 42.40906 25.01450 37307 ft 482 kts 115°
2026-05-01 12:31 42.38121 25.09706 37310 ft 482 kts 115°
2026-05-01 12:32 42.35333 25.17962 37307 ft 483 kts 115°
2026-05-01 12:32 42.31143 25.30334 37300 ft 483 kts 115°
2026-05-01 12:33 42.28337 25.38566 37287 ft 483 kts 116°
2026-05-01 12:33 42.25544 25.46749 37284 ft 483 kts 116°
2026-05-01 12:34 42.22724 25.54989 37278 ft 484 kts 116°
2026-05-01 12:34 42.19899 25.63226 37283 ft 484 kts 116°
2026-05-01 12:35 42.17064 25.71463 37278 ft 484 kts 116°
2026-05-01 12:35 42.14222 25.79688 37284 ft 484 kts 116°
2026-05-01 12:36 42.11372 25.87911 37283 ft 484 kts 116°
2026-05-01 12:36 42.08522 25.96121 37282 ft 484 kts 116°
2026-05-01 12:37 42.05668 26.04317 37277 ft 484 kts 116°
2026-05-01 12:37 42.02800 26.12513 37260 ft 484 kts 117°
2026-05-01 12:38 41.99952 26.20644 37260 ft 484 kts 117°
2026-05-01 12:38 41.97078 26.28819 37256 ft 484 kts 117°
2026-05-01 12:39 41.94199 26.36989 37254 ft 484 kts 117°
2026-05-01 12:39 41.91310 26.45153 37254 ft 484 kts 117°
2026-05-01 12:40 41.88419 26.53311 37250 ft 484 kts 117°
2026-05-01 12:40 41.84742 26.60785 37246 ft 479 kts 133°
2026-05-01 12:41 41.80487 26.67652 37243 ft 479 kts 132°
2026-05-01 12:41 41.76235 26.74521 37235 ft 479 kts 132°
2026-05-01 12:42 41.71939 26.81343 37096 ft 480 kts 134°
2026-05-01 12:42 41.69720 26.84674 36841 ft 479 kts 135°
2026-05-01 12:42 41.67473 26.87960 36582 ft 478 kts 136°
2026-05-01 12:43 41.65216 26.91226 36337 ft 478 kts 136°
2026-05-01 12:43 41.62959 26.94495 36093 ft 478 kts 136°
2026-05-01 12:43 41.60714 26.97769 35856 ft 478 kts 136°
2026-05-01 12:43 41.58478 27.01057 35613 ft 478 kts 135°
2026-05-01 12:44 41.56248 27.04354 35377 ft 478 kts 135°
2026-05-01 12:44 41.54020 27.07652 35142 ft 478 kts 135°
2026-05-01 12:44 41.49562 27.14245 34674 ft 479 kts 135°
2026-05-01 12:45 41.45089 27.20817 34135 ft 478 kts 136°
2026-05-01 12:45 41.42840 27.24106 33289 ft 480 kts 136°
2026-05-01 12:45 41.40606 27.27367 32723 ft 474 kts 135°
2026-05-01 12:46 41.38588 27.30853 31552 ft 479 kts 122°
2026-05-01 12:46 41.37111 27.34830 30452 ft 476 kts 117°
2026-05-01 12:46 41.35735 27.38776 29431 ft 465 kts 117°
2026-05-01 12:46 41.34392 27.42650 28338 ft 457 kts 116°
2026-05-01 12:47 41.33072 27.46455 27368 ft 448 kts 117°
2026-05-01 12:47 41.31774 27.50170 26860 ft 439 kts 117°
2026-05-01 12:47 41.30485 27.53831 26319 ft 435 kts 117°
2026-05-01 12:47 41.29204 27.57452 25804 ft 430 kts 117°
2026-05-01 12:48 41.27932 27.61037 25288 ft 427 kts 117°
2026-05-01 12:48 41.26673 27.64583 24791 ft 422 kts 117°
2026-05-01 12:48 41.25425 27.68099 24288 ft 419 kts 117°
2026-05-01 12:48 41.24188 27.71585 23793 ft 416 kts 117°
2026-05-01 12:49 41.22961 27.75048 23248 ft 413 kts 117°
2026-05-01 12:49 41.21746 27.78477 22758 ft 408 kts 117°
2026-05-01 12:49 41.20542 27.81862 22277 ft 403 kts 117°
2026-05-01 12:49 41.19346 27.85214 21770 ft 400 kts 117°
2026-05-01 12:50 41.18159 27.88531 21285 ft 397 kts 117°
2026-05-01 12:50 41.16993 27.91787 20785 ft 394 kts 117°
2026-05-01 12:50 41.15820 27.95063 20286 ft 392 kts 117°
2026-05-01 12:50 41.14652 27.98328 19787 ft 391 kts 117°
2026-05-01 12:51 41.13488 28.01578 19284 ft 389 kts 117°
2026-05-01 12:51 41.12329 28.04817 18787 ft 388 kts 117°
2026-05-01 12:51 41.09997 28.11314 17524 ft 390 kts 117°
2026-05-01 12:52 41.08835 28.14548 17063 ft 387 kts 118°
2026-05-01 12:52 41.06535 28.20923 16115 ft 381 kts 117°
2026-05-01 12:52 41.05392 28.24078 15619 ft 379 kts 117°
2026-05-01 12:53 41.03127 28.30325 14802 ft 371 kts 116°
2026-05-01 12:53 41.02021 28.33376 14251 ft 365 kts 116°
2026-05-01 12:53 41.00929 28.36389 13690 ft 361 kts 116°
2026-05-01 12:54 40.99847 28.39373 13205 ft 358 kts 116°
2026-05-01 12:54 40.97705 28.45263 12153 ft 355 kts 116°
2026-05-01 12:54 40.96637 28.48189 11719 ft 350 kts 116°
2026-05-01 12:55 40.94530 28.53956 10769 ft 345 kts 116°
2026-05-01 12:55 40.93508 28.56756 10264 ft 331 kts 115°
2026-05-01 12:55 40.92545 28.59391 10133 ft 306 kts 115°
2026-05-01 12:56 40.91637 28.61875 9674 ft 297 kts 115°
2026-05-01 12:56 40.90747 28.64303 9483 ft 290 kts 114°
2026-05-01 12:56 40.89871 28.66690 9222 ft 286 kts 115°
2026-05-01 12:56 40.89006 28.69044 8850 ft 284 kts 113°
2026-05-01 12:57 40.88148 28.71381 8479 ft 281 kts 112°
2026-05-01 12:57 40.86472 28.75938 7639 ft 269 kts 111°
2026-05-01 12:57 40.85671 28.78106 7509 ft 255 kts 112°
2026-05-01 12:58 40.84914 28.80142 7375 ft 240 kts 112°
2026-05-01 12:58 40.84195 28.82080 7120 ft 232 kts 111°
2026-05-01 12:58 40.83499 28.83959 6858 ft 223 kts 110°
2026-05-01 12:59 40.82158 28.87588 5884 ft 218 kts 111°
2026-05-01 12:59 40.81495 28.89392 5362 ft 218 kts 109°
2026-05-01 12:59 40.80181 28.92956 4406 ft 215 kts 109°
2026-05-01 13:00 40.79332 28.96539 3894 ft 198 kts 81°
2026-05-01 13:00 40.79502 28.98309 3763 ft 191 kts 79°
2026-05-01 13:01 40.79827 29.01680 3505 ft 179 kts 77°
2026-05-01 13:01 40.79985 29.03295 3292 ft 177 kts 77°
2026-05-01 13:01 40.80307 29.06497 3017 ft 175 kts 77°
2026-05-01 13:02 40.80471 29.08089 3011 ft 175 kts 73°
2026-05-01 13:07 40.88850 29.31246 298 ft 107 kts 63°
2026-05-01 13:07 40.89106 29.31941 301 ft 59 kts 65°
2026-05-01 13:07 40.89228 29.32252 302 ft 26 kts 55°
2026-05-01 13:08 40.89335 29.32399 303 ft 18 kts 37°
2026-05-01 13:08 40.89425 29.32480 303 ft 14 kts 33°
2026-05-01 13:08 40.89480 29.32502 305 ft 9 kts 342°
2026-05-01 13:08 40.89498 29.32455 305 ft 0 kts 270°
2026-05-01 13:09 40.89498 29.32454 304 ft 0 kts 270°
2026-05-01 13:09 40.89498 29.32444 304 ft 3 kts 270°
2026-05-01 13:09 40.89508 29.32383 303 ft 7 kts 302°
2026-05-01 13:09 40.89516 29.32372 303 ft 0 kts 318°
2026-05-01 13:10 40.89533 29.32363 303 ft 8 kts 344°
2026-05-01 13:10 40.89620 29.32328 303 ft 16 kts 338°
2026-05-01 13:10 40.89728 29.32260 307 ft 17 kts 334°
2026-05-01 13:11 40.89835 29.32193 308 ft 17 kts 334°
2026-05-01 13:11 40.89938 29.32125 311 ft 17 kts 334°
2026-05-01 13:11 40.90048 29.32055 311 ft 18 kts 337°
2026-05-01 13:11 40.90116 29.32129 311 ft 14 kts 62°
2026-05-01 13:12 40.90159 29.32244 311 ft 15 kts 64°
2026-05-01 13:12 40.90204 29.32368 311 ft 15 kts 64°
2026-05-01 13:12 40.90253 29.32499 310 ft 15 kts 64°
2026-05-01 13:12 40.90323 29.32585 310 ft 14 kts 348°
2026-05-01 13:13 40.90417 29.32525 313 ft 15 kts 333°
2026-05-01 13:13 40.90505 29.32468 311 ft 13 kts 335°
2026-05-01 13:13 40.90572 29.32424 311 ft 0 kts 327°
2026-05-01 13:13 40.90577 29.32420 311 ft 4 kts 327°
2026-05-01 13:14 40.90602 29.32393 311 ft 4 kts 307°
2026-05-01 13:14 40.90611 29.32362 311 ft 3 kts 294°
2026-05-01 13:14 40.90637 29.32326 311 ft 7 kts 325°
2026-05-01 13:14 40.90675 29.32300 311 ft 6 kts 332°
2026-05-01 13:15 40.90711 29.32277 311 ft 6 kts 332°
2026-05-01 13:15 40.90734 29.32213 311 ft 8 kts 259°
2026-05-01 13:15 40.90712 29.32149 310 ft 8 kts 244°
2026-05-01 13:15 40.90688 29.32084 311 ft 8 kts 243°
2026-05-01 13:16 40.90692 29.32035 309 ft 5 kts 309°
2026-05-01 13:16 40.90719 29.32014 311 ft 4 kts 334°
2026-05-01 13:16 40.90739 29.32001 311 ft 3 kts 333°
2026-05-01 13:17 40.90743 29.31998 311 ft 0 kts 333°